www.pogodaiklimat.ru

Погода и климат >> Архив погоды >> Россия >> Свердловская область >> Кытлым


ПОГОДА в Кытлыме

  • Прогноз погоды в Кытлыме
  • Монитор погоды в Кытлыме

АРХИВ ПОГОДЫ в Кытлыме

Время (UTC), дата Ветер
(напр.,м/с)
 
Видим.   Явления Облачность Т
(С)
Тd
(С)
f
(%)
Тe
(С)
Тes
(С)
Комфортность P
(гПа)
Po
(гПа)
Тmin
(С)
Tmax
(С)
R
(мм)
R24
(мм)
S
(см)
18 15.09 Ю 3 10 км {ливн. осадки} 8/8 300 м
[Sc]
+8.8 +7.3 90 +6 +6 1005.8 961.5
21 15.09 Ю 3 10 км 9/9 300 м
[Sc]
+8.0 +6.3 89 +5 +5 1005.4 961.0
00 16.09 Ю 5 50 км 4/0
[Ci fib]
+6.0 +4.9 93 +2 +2 1005.5 960.8
03 16.09 Ю 3 10 км 8/5 300 м
[Sc Ci fib]
+4.2 +3.5 95 0 +1 1005.3 960.3 +4.2
06 16.09 Ю 5 20 км 8/8 600 м
[Cb cap]
+9.4 +4.5 71 +6 +7 1003.8 959.6 +2.5
09 16.09 Ю 5-10
{10}
50 км 8/8 1000 м
[Cu med, cong]
+11.4 +0.5 47 +9 +10 1002.3 958.5
12 16.09 Ю 5 50 км 8/8 1000 м
[Cu med, cong]
+11.6 -1.2 41 +9 +10 1001.3 957.5
15 16.09 Ю 3 50 км 8/8 1000 м
[Cb cap]
+8.4 +2.5 66 +6 +6 1000.7 956.5 +12.4
18 16.09 Ю 2 20 км 8/8 600 м
[Sc]
+5.2 +2.8 84 +3 +3 999.3 954.8
21 16.09 Ю 4 10 км 10/10 300 м
[Sc]
+7.0 +4.7 85 +3 +3 996.5 952.4
00 17.09 Ю 2 10 км слаб. дождь 10/10 300 м
[Frnb Ns]
+6.2 +5.3 94 +4 +4 995.3 951.0
03 17.09 Ю 1 10 км {дождь} 10/10 300 м
[Sc]
+6.4 +5.5 94 +5 +5 995.7 950.5 +3.2 1
06 17.09 ЮЗ 3 10 км в посл. час дождь 9/9 300 м
[Sc]
+8.0 +2.0 66 +6 +6 994.8 950.9
09 17.09 ЮЗ 4 10 км {дождь} 9/9 300 м
[Sc]
+10.2 +5.4 72 +8 +8 995.0 951.3
12 17.09 ЮЗ 2 10 км в посл. час дождь 9/9 300 м
[Sc]
+9.2 +6.2 81 +8 +8 996.5 952.7
15 17.09 Ю 4 10 км 10/8 300 м
[Sc Ci fib]
+8.4 +5.8 84 +5 +5 997.1 953.2 +10.9 0.5
18 17.09 Ю 1 10 км 10/10 300 м
[Cb cap]
+8.0 +6.9 93 +7 +7 996.6 952.6
21 17.09 Ю 3 10 км 10/10 300 м
[Cb cap]
+8.1 +5.9 86 +5 +5 995.9 951.9
00 18.09 штиль 0 20 км {ливн. осадки} 9/9 600 м
[Cb cap]
+7.4 +6.1 91 +6 +6 995.6 951.5
03 18.09 Ю 2 10 км 10/10 300 м
[Cb cap]
+7.5 +6.2 91 +5 +5 995.4 951.4 +7.1 0.0
06 18.09 Ю 2 10 км в посл. час ливневой дождь 9/9 300 м
[Cb cap]
+7.8 +6.0 88 +6 +6 996.1 952.1
09 18.09 Ю 3 10 км {ливн. осадки} 6/6 300 м
[Cb cap]
+8.8 +7.5 92 +6 +8 996.9 953.0
12 18.09 Ю 4 10 км {ливн. осадки} 8/8 300 м
[Cb cap]
+9.6 +6.4 80 +7 +7 997.6 953.8
15 18.09 Ю 3 10 км слаб. ливневой дождь 10/10 300 м
[Cb cap]
+7.3 +5.7 90 +4 +4 998.7 954.5 +10.4 8
18 18.09 Ю 1 10 км {ливн. осадки} 8/8 300 м
[Cb cap]
+5.6 +4.7 94 +4 +4 998.7 954.3
21 18.09 Ю 2 10 км {ливн. осадки} 10/10 300 м
[Cb cap]
+6.0 +5.1 94 +3 +3 999.0 954.6
00 19.09 10 км в посл. час ливневой дождь н/о +5.7 +5.0 95 +5 +5 998.5 954.1
03 19.09 Ю 4 10 км 5/3 300 м
[Sc Ac trans Ci fib]
+5.0 +4.5 97 +1 +1 997.8 953.3 +4.8 1
06 19.09 штиль 0 10 км 9/8 600 м
[Cb cap Ci fib]
+9.0 +5.0 76 +8 +9 995.5 951.7
09 19.09 штиль 0 20 км 10/10 600 м
[Cb cap]
+9.1 +2.5 63 +9 +9 993.1 949.4
12 19.09 Ю 3 20 км 9/9 600 м
[Cb cap]
+9.6 +2.8 63 +8 +8 991.3 947.8
15 19.09 штиль 0 10 км в посл. час дождь 10/10 300 м
[Sc]
+6.6 +4.3 85 +6 +6 992.2 948.3 +12.9 1
18 19.09 Ю 2 10 км {дождь} 5/5 300 м
[Sc]
+6.0 +2.6 79 +4 +4 994.9 950.7
21 19.09 ЮЗ 4 20 км 6/6 600 м
[Sc]
+4.6 +1.0 77 +1 +1 997.5 952.9
00 20.09 ЮЗ 5-10
{10}
20 км 6/6 600 м
[Sc]
+3.7 -1.6 68 -1 -1 1000.1 955.1
03 20.09 ЮЗ 4 20 км 8/8 600 м
[Sc]
+2.6 -3.6 64 -2 -2 1002.7 957.5 +2.6
06 20.09 ЮЗ 5
{12}
20 км 8/8 600 м
[Sc]
+3.7 -4.7 54 -1 -0 1005.3 960.1
09 20.09 ЮЗ 5
{12}
20 км 8/8 600 м
[Sc]
+5.1 -2.8 57 +1 +1 1007.2 962.3
12 20.09 ЮЗ 6-10
{10}
50 км 6/6 1000 м
[Sc]
+4.6 -4.6 51 0 0 1009.7 964.7
15 20.09 ЮЗ 6 20 км 6/6 1000 м
[Sc]
+2.8 +3.3 100 -3 -3 1010.7 965.1 +5.6
18 20.09 ЮЗ 2 20 км 5/5 1000 м
[Sc]
+3.0 -8.9 41 +1 +1 1012.8 967.1
21 20.09 Ю 3 50 км 4/0
[Ci fib]
-0.8 -3.3 83 -6 -6 1013.7 967.5
00 21.09 штиль 0 50 км 8/0
[Ci fib]
-2.8 -3.8 93 -4 -4 1014.6 968.0
03 21.09 штиль 0 50 км 10/8 1000 м
[Sc Ci fib]
-2.6 -3.6 93 -4 -4 1014.7 968.1 -3.1
06 21.09 штиль 0 10 км 9/9 600 м
[Sc]
+3.8 -1.1 70 +3 +4 1012.5 967.1
09 21.09 Ю 3 10 км 9/8 600 м
[Sc Ci fib]
+7.2 -1.2 55 +5 +5 1010.0 965.2
12 21.09 Ю 2 20 км 10/10 1000 м
[Sc]
+7.5 -1.1 54 +6 +6 1007.3 962.3
15 21.09 штиль 0 10 км {ливн. осадки} 10/10 300 м
[Cb cap]
+4.2 -1.9 64 +4 +4 1006.2 961.1 +10.1 2
18 21.09 штиль 0 10 км {ливн. осадки} 10/10 300 м
[Cb cap]
+3.0 +2.0 93 +2 +2 1004.4 959.2
21 21.09 штиль 0 10 км 10/10 300 м
[Cb cap]
+2.2 +1.9 98 +1 +1 1002.7 957.5
00 22.09 штиль 0 10 км 10/10 300 м
[Cb cap]
+3.1 +1.8 91 +2 +2 1000.9 955.9
03 22.09 штиль 0 10 км 9/9 300 м
[Cb cap]
+1.6 -0.6 85 +1 +1 999.6 954.4 +1.6 5
06 22.09 СЗ 4 10 км 6/6 300 м
[Sc]
+3.0 -1.5 72 -1 -0 998.1 953.2
09 22.09 СЗ 4 10 км 6/6 300 м
[Sc]
+4.0 -0.6 72 -0 +1 996.8 952.2
12 22.09 СЗ 5 10 км в посл. час крупа {ливн. осадки} 9/9 300 м
[Cb cap]
+2.4 +0.3 86 -3 -3 997.0 952.1
15 22.09 ЮЗ 3 10 км 8/8 300 м
[Cb cap]
+1.9 -1.8 76 -2 -2 997.4 952.5 +4.3 0.2

 

Местоположение метеостанции Кытлым (Свердловская область, Россия): широта 59.50 долгота 59.22 высота над уровнем моря 377 м.

В архиве по умолчанию представлена погода в Кытлыме за последнюю неделю. Архивные данные за месяц целиком и за предыдущие месяцы, начиная с января 2011 года, Вы можете получить, выбрав интересующий диапазон дат из раскрывающегося списка и нажав кнопку "Ввод!".


*Определитесь, кто Вы:
робот инопланетянин человек

Внимание! Время в таблицах - всемирное. Для получения местного времени необходимо прибавить поправку, которая равна 5 ч.

Смотрите также архив погоды в соседних городах и на ближайших метеорологических станциях:

Погода в Карпинске (Свердловская область, Россия) (52 км)
Погода в Серове (Свердловская область, Россия) (75 км)
Погода в Североуральске (Свердловская область, Россия) (92 км)
Погода в Качканаре (Свердловская область, Россия) (93 км)
Погода в Бисере (Пермский край, Россия) (111 км)
Погода в Верхотурье (Свердловская область, Россия) (113 км)
Погода в Губахе (Пермский край, Россия) (119 км)
Погода в Березниках (Пермский край, Россия) (130 км)
Погода в Кушве (Свердловская область, Россия) (135 км)
Погода в Ивделе (Свердловская область, Россия) (148 км)

Пояснения к столбцам:

Ветер - указаны скорость ветра в м/с - средняя за 10 мин, порывы в срок и между сроками (в фигурных скобках) и направление, откуда дует ветер: С - северный, СВ - северо-восточный, В - восточный, ЮВ - юго-восточный, Ю - южный, ЮЗ - юго-западный, З - западный, СЗ - северо-западный.
Видимость - горизонтальная дальность видимости в метрах или километрах. При видимости от 1 до 10 км при отсутствии осадков обычно наблюдается дымка, при ухудшении видимости до 1 км и менее - туман. В сухую погоду видимость может ухудшаться дымом, пылью или мглою.
Явления - указаны атмосферные явления, наблюдавшиеся в срок или в последний час перед сроком; фигурными скобками обозначены явления, наблюдавшиеся между сроками (за 1-3 часа до срока); квадратными скобками обозначены град или гололедные отложения с указанием их диаметра в мм.
Облачность - указаны через наклонную черту общая и нижняя облачность в баллах и высота нижней границы облаков в метрах; квадратными скобками обозначены формы облаков: Ci - перистые, Cs - перисто-слоистые, Cc - перисто-кучевые, Ac - высококучевые, As - высокослоистые, Sc - слоисто-кучевые, Ns - слоисто-дождевые, Cu - кучевые, Cb - кучево-дождевые. Подробнее классификацию облаков см. в Атласе облаков (PDF).
T - Температура воздуха - температура, измеренная на высоте 2 м над землей.
Td - Температура точки росы - температура, при понижении до которой содержащийся в воздухе водяной пар достигнет насыщения.
f - Относительная влажность воздуха - влажноcть воздуха, измеренная на высоте 2 м над землей.
Te - Эффективная температура - температура, которую ощущает одетый по сезону человек в тени. Характеристика душности погоды. При расчете учитывается влияние влажности воздуха и скорости ветра на теплоощущения человека.
Tes - Эффективная температура на солнце - температура, которую ощущает человек, с поправкой на солнечный нагрев. Характеристика знойности погоды. Зависит от высоты солнца над горизонтом, облачности и скорости ветра. Ночью, в пасмурную погоду, а также при ветре 12 м/с и более поправка равна нулю.
P - Атмосферное давление - приведенное к уровню моря атмосферное давление.
Po - Атмосферное давление - измеренное на уровне метеостанции атмосферное давление.
Tmin - Минимальная температура - минимум температуры воздуха на высоте 2 м над землей.
Tmax - Максимальная температура - максимум температуры воздуха на высоте 2 м над землей.
R - Количество осадков - Количество выпавших осадков за период времени, мм. При наведении курсора мыши на число - период времени, за который выпало указанное количество осадков.
R24 - Количество осадков - Количество выпавших осадков за 24 часа, мм.
S - Снежный покров - Высота снежного покрова, см. При наведении курсора мыши на число - состояние снежного покрова и степень покрытия местности в баллах.